Location: *
(32.8667°N, 13.1833°E)
Time: 08:26:10
(UTC+00:00)

SL-4 R/B - Pass Details

Date: 18 July 2019
Orbit: 428 x 667 km, 51.6° (Epoch: 21 August)

Event Time Altitude Azimuth Distance (km) Brightness Sun altitude
Rises 19:00:25 0° 197° (SSW) 2,934 5.6 -9.1°
Reaches altitude 10° 19:02:58 10° 186° (S) 2,051 4.7 -9.6°
Maximum altitude 19:07:02 28° 127° (SE) 1,225 3.2 -10.3°
Drops below altitude 10° 19:11:10 10° 69° (ENE) 2,087 4.6 -11.0°
Sets 19:13:46 0° 58° (ENE) 2,996 5.5 -11.5°
